Climatologie pour Saint-Brevin les Pins
Jour • Résumé pour juin 23, 2017 Système :  Métrique    Anglais   Mixte
« - 1 jour
+ 1 jour »
Jour Semaine Mois Année Personnalisé
  Maximum : Minimum : Moyenne :
Température sous abri : -17.8 °C -9.2 °C -7.5 °C
Point de rosée : -17.8 °C -10.4 °C -9.7 °C
Humidité : Humidity % 62 % 78 %
Vitesse du vent : 0 km/h 0 km/h 9.3 km/h
Rafale : 0 km/h - -
Direction :- - West
Pression : 0 hPa 34462.7 hPa -
Précipitations : 0 mm    
Historical Graphs
 
 
Tableau de données pour juin 23, 2017
Heure Tempé Pt rosée Pression Vent Vitesse Rafale Humidité Taux pluie (/hr) Soleil
-17.8 °C -17.8 °C 0 hPa Calm     Humidity % 0 mm SolarRadiationWatts/m^2 W/m2 Conditions
00:00 -8.2 °C -8.9 °C 34462.7 hPa West 2.6 km/h 10.3 km/h 93 % 0 mm 0 W/m2
00:10 -8.3 °C -8.8 °C 34462.7 hPa WNW 2.6 km/h 15.6 km/h 94 % 0 mm 0 W/m2
00:20 -8.3 °C -8.9 °C 34476.3 hPa WNW 7.7 km/h 7.7 km/h 94 % 0 mm 0 W/m2
00:30 -8.3 °C -8.9 °C 34476.3 hPa North 7.7 km/h 18.2 km/h 94 % 0 mm 0 W/m2
00:35 -8.3 °C -8.8 °C 34476.3 hPa North 2.6 km/h 18.2 km/h 94 % 0 mm 0 W/m2
00:40 -8.3 °C -8.8 °C 34486.4 hPa North 10.3 km/h 15.6 km/h 94 % 0 mm 0 W/m2
00:45 -8.3 °C -8.9 °C 34476.3 hPa North 5.1 km/h 15.6 km/h 93 % 0 mm 0 W/m2
00:50 -8.3 °C -8.9 °C 34486.4 hPa North 2.6 km/h 15.6 km/h 93 % 0 mm 0 W/m2
00:55 -8.3 °C -9.1 °C 34486.4 hPa NNE 7.7 km/h 15.6 km/h 92 % 0 mm 0 W/m2
01:00 -8.3 °C -9.2 °C 34486.4 hPa North 7.7 km/h 15.6 km/h 91 % 0 mm 0 W/m2
01:05 -8.4 °C -9.2 °C 34486.4 hPa Calm   12.9 km/h 91 % 0 mm 0 W/m2
01:10 -8.5 °C -9.3 °C 34486.4 hPa North 2.6 km/h 15.6 km/h 91 % 0 mm 0 W/m2
01:15 -8.5 °C -9.3 °C 34486.4 hPa NNW 2.6 km/h 15.6 km/h 91 % 0 mm 0 W/m2
01:20 -8.6 °C -9.4 °C 34496.6 hPa North 5.1 km/h 15.6 km/h 90 % 0 mm 0 W/m2
01:25 -8.7 °C -9.4 °C 34496.6 hPa North 5.1 km/h 18.2 km/h 91 % 0 mm 0 W/m2
01:30 -8.6 °C -9.4 °C 34496.6 hPa North 10.3 km/h 18.2 km/h 91 % 0 mm 0 W/m2
01:35 -8.5 °C -9.4 °C 34496.6 hPa NNW 5.1 km/h 18.2 km/h 90 % 0 mm 0 W/m2
01:40 -8.4 °C -9.3 °C 34510.1 hPa North 7.7 km/h 18.2 km/h 90 % 0 mm 0 W/m2
01:50 -8.2 °C -9.3 °C 34510.1 hPa North 2.6 km/h 18.2 km/h 88 % 0 mm 0 W/m2
01:55 -8.1 °C -9.3 °C 34510.1 hPa NW 5.1 km/h 15.6 km/h 87 % 0 mm 0 W/m2
02:00 -8.1 °C -9.3 °C 34510.1 hPa North 2.6 km/h 15.6 km/h 87 % 0 mm 0 W/m2
02:05 -8 °C -9.3 °C 34510.1 hPa Calm   15.6 km/h 86 % 0 mm 0 W/m2
02:10 -8 °C -9.3 °C 34510.1 hPa North 10.3 km/h 12.9 km/h 86 % 0 mm 0 W/m2
02:15 -8 °C -9.3 °C 34510.1 hPa North 18.2 km/h 20.8 km/h 86 % 0 mm 0 W/m2
02:20 -7.9 °C -9.4 °C 34510.1 hPa North 7.7 km/h 20.8 km/h 85 % 0 mm 0 W/m2
02:25 -7.9 °C -9.5 °C 34510.1 hPa North 2.6 km/h 18.2 km/h 83 % 0 mm 0 W/m2
02:30 -7.9 °C -9.5 °C 34510.1 hPa NNE 10.3 km/h 18.2 km/h 83 % 0 mm 0 W/m2
02:35 -7.8 °C -9.4 °C 34510.1 hPa North 5.1 km/h 18.2 km/h 83 % 0 mm 0 W/m2
02:40 -7.8 °C -9.4 °C 34510.1 hPa NNW 2.6 km/h 18.2 km/h 83 % 0 mm 0 W/m2
02:45 -7.8 °C -9.4 °C 34510.1 hPa NNE 5.1 km/h 12.9 km/h 83 % 0 mm 0 W/m2
02:50 -7.9 °C -9.5 °C 34510.1 hPa North 7.7 km/h 18.2 km/h 83 % 0 mm 0 W/m2
02:55 -7.8 °C -9.6 °C 34510.1 hPa North 5.1 km/h 18.2 km/h 82 % 0 mm 0 W/m2
03:00 -7.8 °C -9.6 °C 34510.1 hPa Calm   18.2 km/h 82 % 0 mm 0 W/m2
03:05 -7.8 °C -9.6 °C 34510.1 hPa Calm   18.2 km/h 82 % 0 mm 0 W/m2
03:10 -7.9 °C -9.6 °C 34510.1 hPa North 12.9 km/h 15.6 km/h 82 % 0 mm 0 W/m2
03:15 -7.9 °C -9.6 °C 34510.1 hPa NNE 10.3 km/h 12.9 km/h 82 % 0 mm 0 W/m2
03:20 -7.9 °C -9.7 °C 34510.1 hPa NNE 5.1 km/h 18.2 km/h 82 % 0 mm 0 W/m2
03:25 -7.9 °C -9.7 °C 34510.1 hPa NNE 5.1 km/h 18.2 km/h 82 % 0 mm 0 W/m2
03:30 -7.9 °C -9.7 °C 34510.1 hPa Calm   15.6 km/h 82 % 0 mm 0 W/m2
03:35 -8 °C -9.7 °C 34510.1 hPa NNW 2.6 km/h 12.9 km/h 82 % 0 mm 0 W/m2
03:40 -8.1 °C -9.7 °C 34510.1 hPa NNE 10.3 km/h 12.9 km/h 83 % 0 mm 0 W/m2
03:45 -8.2 °C -9.8 °C 34510.1 hPa Calm   12.9 km/h 83 % 0 mm 0 W/m2
03:50 -8.3 °C -9.8 °C 34510.1 hPa Calm   12.9 km/h 84 % 0 mm 0 W/m2
03:55 -8.4 °C -9.8 °C 34510.1 hPa Calm   5.1 km/h 85 % 0 mm 0 W/m2
04:00 -8.6 °C -9.9 °C 34510.1 hPa Calm   5.1 km/h 86 % 0 mm 0 W/m2
04:05 -8.8 °C -10 °C 34510.1 hPa NE 2.6 km/h 5.1 km/h 87 % 0 mm 0 W/m2
04:10 -8.9 °C -10 °C 34510.1 hPa Calm   5.1 km/h 88 % 0 mm 0 W/m2
04:15 -9 °C -10.1 °C 34510.1 hPa Calm   2.6 km/h 88 % 0 mm 0 W/m2
04:20 -9.1 °C -10.1 °C 34510.1 hPa Calm   5.1 km/h 89 % 0 mm 0 W/m2
04:25 -9.1 °C -10.2 °C 34510.1 hPa Calm   5.1 km/h 89 % 0 mm 0 W/m2
04:30 -9.2 °C -10.1 °C 34510.1 hPa Calm     90 % 0 mm 0 W/m2
04:35 -9.2 °C -10.1 °C 34510.1 hPa Calm     90 % 0 mm 0 W/m2
04:40 -9.1 °C -9.9 °C 34510.1 hPa Calm   2.6 km/h 91 % 0 mm 0 W/m2
04:45 -9.1 °C -9.9 °C 34510.1 hPa Calm   5.1 km/h 91 % 0 mm 0 W/m2
04:50 -8.8 °C -9.8 °C 34520.3 hPa Calm   7.7 km/h 90 % 0 mm 0 W/m2
04:55 -8.7 °C -9.7 °C 34520.3 hPa Calm   10.3 km/h 89 % 0 mm 0 W/m2
05:00 -8.7 °C -9.8 °C 34520.3 hPa NNE 5.1 km/h 12.9 km/h 88 % 0 mm 0 W/m2
05:05 -8.6 °C -9.7 °C 34520.3 hPa NNE 2.6 km/h 12.9 km/h 88 % 0 mm 0 W/m2
05:10 -8.6 °C -9.8 °C 34520.3 hPa Calm   7.7 km/h 87 % 0 mm 0 W/m2
05:15 -8.6 °C -9.8 °C 34520.3 hPa Calm   7.7 km/h 87 % 0 mm 0 W/m2
05:20 -8.4 °C -9.7 °C 34520.3 hPa Calm   7.7 km/h 87 % 0 mm 0 W/m2
05:25 -8.4 °C -9.7 °C 34520.3 hPa Calm   7.7 km/h 87 % 0 mm 0 W/m2
05:30 -8.5 °C -9.7 °C 34533.8 hPa Calm   7.7 km/h 87 % 0 mm 0 W/m2
05:35 -8.4 °C -9.6 °C 34533.8 hPa NW 2.6 km/h 18.2 km/h 87 % 0 mm 0 W/m2
05:40 -8.4 °C -9.6 °C 34533.8 hPa North 10.3 km/h 18.2 km/h 87 % 0 mm 0 W/m2
05:45 -8.4 °C -9.8 °C 34533.8 hPa NNW 5.1 km/h 18.2 km/h 85 % 0 mm 0 W/m2
05:50 -8.3 °C -9.8 °C 34533.8 hPa North 12.9 km/h 20.8 km/h 84 % 0 mm 0 W/m2
05:55 -8.3 °C -10.1 °C 34533.8 hPa NNW 10.3 km/h 25.9 km/h 82 % 0 mm 0 W/m2
06:05 -8.3 °C -10.3 °C 34544 hPa NNW 5.1 km/h 18.2 km/h 80 % 0 mm 0 W/m2
06:10 -8.3 °C -10.3 °C 34544 hPa WNW 5.1 km/h 18.2 km/h 80 % 0 mm 0 W/m2
06:15 -8.4 °C -10.2 °C 34544 hPa Calm   15.6 km/h 81 % 0 mm 0 W/m2
06:20 -8.4 °C -10.3 °C 34544 hPa NNW 7.7 km/h 20.8 km/h 80 % 0 mm 0 W/m2
06:35 -8.4 °C -10.3 °C 34544 hPa North 2.6 km/h 20.8 km/h 81 % 0 mm 18 W/m2
06:40 -8.6 °C -10.4 °C 34554.1 hPa NNW 5.1 km/h 20.8 km/h 81 % 0 mm 26 W/m2
06:45 -8.6 °C -10.3 °C 34554.1 hPa NNW 2.6 km/h 20.8 km/h 82 % 0 mm 35 W/m2
06:50 -8.7 °C -10.4 °C 34554.1 hPa NNW 2.6 km/h 18.2 km/h 82 % 0 mm 46 W/m2
06:55 -8.7 °C -10.3 °C 34554.1 hPa NW 2.6 km/h 15.6 km/h 83 % 0 mm 58 W/m2
07:00 -8.6 °C -10.2 °C 34554.1 hPa NNE 12.9 km/h 18.2 km/h 83 % 0 mm 65 W/m2
07:05 -8.5 °C -10.2 °C 34554.1 hPa NNW 10.3 km/h 20.8 km/h 82 % 0 mm 67 W/m2
07:10 -8.4 °C -10.1 °C 34567.7 hPa NW 2.6 km/h 20.8 km/h 83 % 0 mm 69 W/m2
07:15 -8.4 °C -10.1 °C 34567.7 hPa Calm   18.2 km/h 82 % 0 mm 69 W/m2
07:20 -8.4 °C -10 °C 34567.7 hPa Calm   12.9 km/h 83 % 0 mm 74 W/m2
07:25 -8.3 °C -9.9 °C 34567.7 hPa Calm   12.9 km/h 83 % 0 mm 72 W/m2
07:30 -8.4 °C -10.1 °C 34567.7 hPa WNW 5.1 km/h 15.6 km/h 82 % 0 mm 63 W/m2
07:35 -8.5 °C -10.1 °C 34567.7 hPa NNW 12.9 km/h 15.6 km/h 83 % 0 mm 70 W/m2
07:40 -8.6 °C -10.2 °C 34567.7 hPa Calm   12.9 km/h 83 % 0 mm 69 W/m2
07:45 -8.7 °C -10.2 °C 34567.7 hPa NNW 5.1 km/h 12.9 km/h 84 % 0 mm 65 W/m2
07:55 -8.6 °C -10.2 °C 34577.8 hPa NW 5.1 km/h 15.6 km/h 83 % 0 mm 237 W/m2
08:00 -8.3 °C -10.1 °C 34577.8 hPa North 12.9 km/h 20.8 km/h 82 % 0 mm 216 W/m2
08:05 -8.2 °C -10.1 °C 34577.8 hPa NNW 12.9 km/h 20.8 km/h 81 % 0 mm 234 W/m2
08:10 -8.1 °C -10 °C 34577.8 hPa North 5.1 km/h 20.8 km/h 80 % 0 mm 334 W/m2
08:15 -7.8 °C -9.9 °C 34577.8 hPa North 10.3 km/h 18.2 km/h 79 % 0 mm 343 W/m2
08:20 -7.8 °C -10.2 °C 34577.8 hPa NNE 5.1 km/h 18.2 km/h 76 % 0 mm 102 W/m2
08:25 -7.9 °C -10 °C 34577.8 hPa Calm   15.6 km/h 79 % 0 mm 116 W/m2
08:30 -8.1 °C -10 °C 34577.8 hPa North 10.3 km/h 12.9 km/h 80 % 0 mm 200 W/m2
08:35 -8.2 °C -10.1 °C 34591.4 hPa NNW 10.3 km/h 12.9 km/h 81 % 0 mm 62 W/m2
08:40 -8.4 °C -10.1 °C 34591.4 hPa NNW 5.1 km/h 12.9 km/h 82 % 0 mm 76 W/m2
08:45 -8.4 °C -10.2 °C 34591.4 hPa Calm   10.3 km/h 82 % 0 mm 306 W/m2
08:50 -7.9 °C -9.8 °C 34591.4 hPa Calm   7.7 km/h 81 % 0 mm 432 W/m2
08:55 -7.5 °C -9.8 °C 34591.4 hPa WNW 5.1 km/h 7.7 km/h 77 % 0 mm 485 W/m2
09:00 -7.3 °C -9.7 °C 34591.4 hPa WNW 2.6 km/h 10.3 km/h 76 % 0 mm 480 W/m2
09:05 -7.3 °C -9.9 °C 34591.4 hPa North 5.1 km/h 12.9 km/h 74 % 0 mm 299 W/m2
09:10 -7.4 °C -10.1 °C 34591.4 hPa West 2.6 km/h 12.9 km/h 74 % 0 mm 156 W/m2
09:15 -7.6 °C -10 °C 34591.4 hPa West 5.1 km/h 10.3 km/h 76 % 0 mm 214 W/m2
09:20 -7.6 °C -10 °C 34591.4 hPa Calm   10.3 km/h 76 % 0 mm 264 W/m2
09:25 -7.6 °C -10.2 °C 34591.4 hPa WNW 5.1 km/h 7.7 km/h 74 % 0 mm 135 W/m2
09:30 -7.7 °C -10.3 °C 34601.5 hPa Calm   7.7 km/h 74 % 0 mm 128 W/m2
09:35 -7.7 °C -10.2 °C 34601.5 hPa WNW 2.6 km/h 7.7 km/h 75 % 0 mm 587 W/m2
09:40 -7.4 °C -9.9 °C 34591.4 hPa Calm   7.7 km/h 75 % 0 mm 431 W/m2
09:50 -7.2 °C -10.3 °C 34591.4 hPa Calm   12.9 km/h 70 % 0 mm 250 W/m2
09:55 -7.3 °C -10.1 °C 34601.5 hPa Calm   12.9 km/h 72 % 0 mm 174 W/m2
10:00 -7.3 °C -10.2 °C 34601.5 hPa Calm   12.9 km/h 72 % 0 mm 128 W/m2
10:05 -7.4 °C -10.3 °C 34601.5 hPa WSW 2.6 km/h 12.9 km/h 72 % 0 mm 174 W/m2
10:15 -7.3 °C -10.2 °C 34601.5 hPa West 2.6 km/h 12.9 km/h 72 % 0 mm 202 W/m2
10:20 -7.4 °C -10.2 °C 34601.5 hPa WSW 15.6 km/h 15.6 km/h 73 % 0 mm 188 W/m2
10:25 -7.4 °C -9.9 °C 34601.5 hPa West 7.7 km/h 18.2 km/h 75 % 0 mm 160 W/m2
10:30 -7.5 °C -10 °C 34601.5 hPa WSW 5.1 km/h 18.2 km/h 75 % 0 mm 214 W/m2
10:35 -7.4 °C -10 °C 34601.5 hPa SW 2.6 km/h 15.6 km/h 75 % 0 mm 225 W/m2
10:40 -7.3 °C -9.8 °C 34601.5 hPa NW 7.7 km/h 12.9 km/h 75 % 0 mm 297 W/m2
10:45 -7.1 °C -9.9 °C 34601.5 hPa Calm   10.3 km/h 73 % 0 mm 301 W/m2
10:50 -7.1 °C -9.9 °C 34601.5 hPa Calm   10.3 km/h 72 % 0 mm 281 W/m2
10:55 -7.2 °C -10.2 °C 34601.5 hPa Calm   7.7 km/h 71 % 0 mm 262 W/m2
11:00 -7.1 °C -10.1 °C 34601.5 hPa NW 2.6 km/h 7.7 km/h 71 % 0 mm 237 W/m2
11:05 -7.2 °C -10.2 °C 34611.7 hPa Calm   10.3 km/h 71 % 0 mm 202 W/m2
11:10 -7.3 °C -10 °C 34611.7 hPa WNW 12.9 km/h 18.2 km/h 73 % 0 mm 181 W/m2
11:15 -7.3 °C -9.9 °C 34611.7 hPa West 15.6 km/h 18.2 km/h 74 % 0 mm 149 W/m2
11:20 -7.4 °C -9.9 °C 34611.7 hPa West 10.3 km/h 20.8 km/h 75 % 0 mm 172 W/m2
11:25 -7.4 °C -9.9 °C 34611.7 hPa WSW 12.9 km/h 20.8 km/h 75 % 0 mm 181 W/m2
11:30 -7.4 °C -9.9 °C 34611.7 hPa WSW 7.7 km/h 18.2 km/h 75 % 0 mm 192 W/m2
11:35 -7.4 °C -10 °C 34611.7 hPa WSW 15.6 km/h 20.8 km/h 74 % 0 mm 167 W/m2
11:45 -7.4 °C -10 °C 34625.2 hPa WSW 2.6 km/h 18.2 km/h 74 % 0 mm 199 W/m2
11:50 -7.3 °C -9.9 °C 34625.2 hPa WSW 12.9 km/h 18.2 km/h 74 % 0 mm 213 W/m2
11:55 -7.3 °C -9.9 °C 34611.7 hPa WSW 10.3 km/h 20.8 km/h 74 % 0 mm 227 W/m2
12:00 -7.2 °C -9.8 °C 34611.7 hPa SW 12.9 km/h 25.9 km/h 74 % 0 mm 246 W/m2
12:05 -7.2 °C -9.8 °C 34611.7 hPa WSW 12.9 km/h 25.9 km/h 74 % 0 mm 325 W/m2
12:10 -7.1 °C -9.7 °C 34611.7 hPa WSW 10.3 km/h 25.9 km/h 74 % 0 mm 415 W/m2
12:15 -6.8 °C -9.4 °C 34611.7 hPa WNW 18.2 km/h 33.6 km/h 74 % 0 mm 487 W/m2
12:20 -6.8 °C -9.6 °C 34625.2 hPa WSW 15.6 km/h 33.6 km/h 73 % 0 mm 355 W/m2
12:25 -6.8 °C -9.3 °C 34611.7 hPa West 10.3 km/h 25.9 km/h 75 % 0 mm 475 W/m2
12:30 -6.8 °C -9.6 °C 34611.7 hPa West 12.9 km/h 28.5 km/h 73 % 0 mm 469 W/m2
12:35 -6.8 °C -9.5 °C 34611.7 hPa WSW 7.7 km/h 28.5 km/h 73 % 0 mm 478 W/m2
12:40 -6.8 °C -9.3 °C 34625.2 hPa WNW 7.7 km/h 23.3 km/h 75 % 0 mm 434 W/m2
12:45 -6.7 °C -9.3 °C 34625.2 hPa WSW 15.6 km/h 23.3 km/h 74 % 0 mm 490 W/m2
12:50 -6.6 °C -9.3 °C 34611.7 hPa WSW 10.3 km/h 28.5 km/h 74 % 0 mm 603 W/m2
12:55 -6.4 °C -9.3 °C 34611.7 hPa WSW 12.9 km/h 28.5 km/h 72 % 0 mm 577 W/m2
13:00 -6.5 °C -9.3 °C 34611.7 hPa West 7.7 km/h 23.3 km/h 73 % 0 mm 534 W/m2
13:05 -6.5 °C -9.4 °C 34611.7 hPa WNW 10.3 km/h 23.3 km/h 72 % 0 mm 585 W/m2
13:10 -6.3 °C -9.3 °C 34611.7 hPa SW 15.6 km/h 23.3 km/h 71 % 0 mm 554 W/m2
13:15 -6.4 °C -9.4 °C 34611.7 hPa West 7.7 km/h 23.3 km/h 71 % 0 mm 524 W/m2
13:20 -6.4 °C -9.3 °C 34611.7 hPa West 12.9 km/h 25.9 km/h 72 % 0 mm 489 W/m2
13:25 -6.4 °C -9.2 °C 34611.7 hPa West 20.8 km/h 25.9 km/h 73 % 0 mm 603 W/m2
13:30 -6.3 °C -9 °C 34601.5 hPa West 10.3 km/h 23.3 km/h 74 % 0 mm 585 W/m2
13:40 -6.3 °C -9.2 °C 34601.5 hPa WSW 15.6 km/h 18.2 km/h 72 % 0 mm 573 W/m2
13:45 -6.3 °C -9.4 °C 34601.5 hPa West 20.8 km/h 23.3 km/h 70 % 0 mm 659 W/m2
13:50 -6.2 °C -9.4 °C 34601.5 hPa WNW 10.3 km/h 25.9 km/h 70 % 0 mm 673 W/m2
13:55 -6.2 °C -9.4 °C 34601.5 hPa WSW 2.6 km/h 25.9 km/h 70 % 0 mm 642 W/m2
14:00 -6.3 °C -9.3 °C 34611.7 hPa SW 18.2 km/h 25.9 km/h 71 % 0 mm 596 W/m2
14:05 -6.2 °C -9.2 °C 34611.7 hPa SSW 7.7 km/h 25.9 km/h 71 % 0 mm 566 W/m2
14:10 -6.3 °C -9.6 °C 34611.7 hPa WSW 15.6 km/h 25.9 km/h 69 % 0 mm 482 W/m2
14:15 -6.3 °C -9.5 °C 34611.7 hPa West 12.9 km/h 25.9 km/h 70 % 0 mm 529 W/m2
14:20 -6.4 °C -9.3 °C 34611.7 hPa Calm   31.1 km/h 72 % 0 mm 503 W/m2
14:25 -6.2 °C -9.2 °C 34625.2 hPa SW 5.1 km/h 31.1 km/h 72 % 0 mm 450 W/m2
14:30 -6.3 °C -9.2 °C 34625.2 hPa West 18.2 km/h 28.5 km/h 72 % 0 mm 520 W/m2
14:35 -6.3 °C -9.3 °C 34625.2 hPa West 23.3 km/h 28.5 km/h 71 % 0 mm 559 W/m2
14:40 -6.3 °C -9.4 °C 34611.7 hPa West 12.9 km/h 31.1 km/h 70 % 0 mm 527 W/m2
14:45 -6.3 °C -9.3 °C 34611.7 hPa SW 23.3 km/h 31.1 km/h 71 % 0 mm 592 W/m2
14:50 -6.2 °C -9.2 °C 34611.7 hPa West 12.9 km/h 33.6 km/h 71 % 0 mm 601 W/m2
14:55 -6.3 °C -9.3 °C 34611.7 hPa WNW 18.2 km/h 33.6 km/h 71 % 0 mm 584 W/m2
15:00 -6.4 °C -9.6 °C 34611.7 hPa WNW 20.8 km/h 31.1 km/h 70 % 0 mm 599 W/m2
15:05 -5.9 °C -9.1 °C 34611.7 hPa WSW 10.3 km/h 28.5 km/h 70 % 0 mm 612 W/m2
15:10 -5.9 °C -9.4 °C 34611.7 hPa WSW 12.9 km/h 31.1 km/h 68 % 0 mm 578 W/m2
15:20 -5.7 °C -9.4 °C 34611.7 hPa West 23.3 km/h 36.2 km/h 66 % 0 mm 606 W/m2
15:25 -5.9 °C -9.4 °C 34611.7 hPa West 18.2 km/h 36.2 km/h 67 % 0 mm 663 W/m2
15:30 -5.6 °C -9.4 °C 34611.7 hPa WNW 2.6 km/h 36.2 km/h 65 % 0 mm 809 W/m2
15:35 -5.2 °C -9.1 °C 34611.7 hPa West 7.7 km/h 31.1 km/h 65 % 0 mm 1044 W/m2
15:40 -5.5 °C -9.7 °C 34611.7 hPa WNW 20.8 km/h 28.5 km/h 62 % 0 mm 816 W/m2
15:45 -5.3 °C -9.3 °C 34611.7 hPa West 7.7 km/h 31.1 km/h 64 % 0 mm 939 W/m2
15:50 -5.4 °C -9.2 °C 34611.7 hPa WNW 7.7 km/h 33.6 km/h 65 % 0 mm 652 W/m2
15:55 -5.4 °C -8.9 °C 34611.7 hPa WSW 12.9 km/h 36.2 km/h 68 % 0 mm 621 W/m2
16:00 -5.9 °C -9.4 °C 34611.7 hPa WNW 7.7 km/h 36.2 km/h 67 % 0 mm 315 W/m2
16:05 -6.1 °C -9.5 °C 34611.7 hPa NW 23.3 km/h 33.6 km/h 68 % 0 mm 425 W/m2
16:10 -6.4 °C -9.4 °C 34611.7 hPa West 7.7 km/h 33.6 km/h 71 % 0 mm 281 W/m2
16:15 -6.6 °C -9.6 °C 34611.7 hPa WNW 15.6 km/h 31.1 km/h 71 % 0 mm 316 W/m2
16:20 -6.8 °C -9.6 °C 34625.2 hPa West 7.7 km/h 33.6 km/h 73 % 0 mm 316 W/m2
16:25 -6.7 °C -9.4 °C 34611.7 hPa West 15.6 km/h 33.6 km/h 73 % 0 mm 311 W/m2
16:30 -6.4 °C -8.9 °C 34611.7 hPa West 12.9 km/h 28.5 km/h 76 % 0 mm 916 W/m2
16:35 -6 °C -9.2 °C 34611.7 hPa WNW 18.2 km/h 31.1 km/h 70 % 0 mm 450 W/m2
16:40 -6.2 °C -9.2 °C 34601.5 hPa West 18.2 km/h 33.6 km/h 71 % 0 mm 726 W/m2
16:45 -5.7 °C -8.6 °C 34601.5 hPa WSW 23.3 km/h 33.6 km/h 72 % 0 mm 877 W/m2
16:50 -5.5 °C -9.2 °C 34611.7 hPa West 20.8 km/h 31.1 km/h 66 % 0 mm 689 W/m2
16:55 -6 °C -9.3 °C 34601.5 hPa WSW 18.2 km/h 31.1 km/h 69 % 0 mm 793 W/m2
17:00 -5.7 °C -9.3 °C 34601.5 hPa WSW 5.1 km/h 28.5 km/h 67 % 0 mm 795 W/m2
17:05 -5.6 °C -9.2 °C 34601.5 hPa West 7.7 km/h 31.1 km/h 67 % 0 mm 759 W/m2
17:10 -5.6 °C -9.2 °C 34601.5 hPa WSW 25.9 km/h 36.2 km/h 67 % 0 mm 740 W/m2
17:15 -5.4 °C -8.9 °C 34601.5 hPa WSW 20.8 km/h 36.2 km/h 68 % 0 mm 717 W/m2
17:20 -5.5 °C -9.2 °C 34601.5 hPa WSW 5.1 km/h 31.1 km/h 66 % 0 mm 700 W/m2
17:25 -5.5 °C -9.4 °C 34601.5 hPa West 18.2 km/h 33.6 km/h 64 % 0 mm 712 W/m2
17:30 -5.8 °C -9.4 °C 34601.5 hPa West 10.3 km/h 33.6 km/h 66 % 0 mm 689 W/m2
17:35 -5.9 °C -9.2 °C 34601.5 hPa West 20.8 km/h 33.6 km/h 69 % 0 mm 684 W/m2
17:40 -5.7 °C -9.3 °C 34601.5 hPa West 20.8 km/h 36.2 km/h 67 % 0 mm 650 W/m2
17:45 -6.2 °C -9.4 °C 34601.5 hPa WSW 18.2 km/h 36.2 km/h 69 % 0 mm 649 W/m2
17:50 -6.3 °C -9.4 °C 34601.5 hPa WSW 7.7 km/h 33.6 km/h 70 % 0 mm 640 W/m2
17:55 -6.2 °C -9.4 °C 34601.5 hPa WSW 12.9 km/h 36.2 km/h 70 % 0 mm 601 W/m2
18:00 -6.4 °C -9.7 °C 34601.5 hPa West 25.9 km/h 36.2 km/h 69 % 0 mm 582 W/m2
18:05 -6.1 °C -9.5 °C 34601.5 hPa WSW 7.7 km/h 38.8 km/h 68 % 0 mm 566 W/m2
18:10 -5.9 °C -9.3 °C 34601.5 hPa West 12.9 km/h 38.8 km/h 68 % 0 mm 548 W/m2
18:15 -6.1 °C -9.1 °C 34601.5 hPa WSW 28.5 km/h 38.8 km/h 71 % 0 mm 541 W/m2
18:20 -5.9 °C -9.2 °C 34601.5 hPa West 28.5 km/h 38.8 km/h 69 % 0 mm 527 W/m2
18:25 -6.1 °C -9.4 °C 34601.5 hPa WSW 15.6 km/h 33.6 km/h 69 % 0 mm 513 W/m2
18:30 -5.9 °C -9.3 °C 34601.5 hPa SW 7.7 km/h 33.6 km/h 68 % 0 mm 499 W/m2
18:35 -6.2 °C -9.5 °C 34601.5 hPa SSW 10.3 km/h 38.8 km/h 69 % 0 mm 483 W/m2
18:40 -6.1 °C -9.2 °C 34601.5 hPa SW 5.1 km/h 38.8 km/h 71 % 0 mm 471 W/m2
18:45 -6.2 °C -9.3 °C 34601.5 hPa West 15.6 km/h 36.2 km/h 70 % 0 mm 452 W/m2
18:55 -6.2 °C -9.3 °C 34601.5 hPa West 10.3 km/h 41.4 km/h 70 % 0 mm 427 W/m2
19:00 -6.4 °C -9.2 °C 34601.5 hPa West 5.1 km/h 41.4 km/h 73 % 0 mm 411 W/m2
19:05 -6.4 °C -9.2 °C 34601.5 hPa West 15.6 km/h 44.1 km/h 73 % 0 mm 397 W/m2
19:10 -6.2 °C -9 °C 34601.5 hPa WNW 18.2 km/h 44.1 km/h 73 % 0 mm 374 W/m2
19:15 -6.2 °C -9.3 °C 34601.5 hPa WNW 28.5 km/h 36.2 km/h 71 % 0 mm 362 W/m2
19:20 -6.6 °C -9.4 °C 34601.5 hPa WNW 7.7 km/h 36.2 km/h 73 % 0 mm 348 W/m2
19:25 -6.6 °C -9.3 °C 34601.5 hPa West 15.6 km/h 44.1 km/h 74 % 0 mm 336 W/m2
19:30 -6.7 °C -9.3 °C 34601.5 hPa WSW 25.9 km/h 44.1 km/h 74 % 0 mm 325 W/m2
19:35 -6.6 °C -9.1 °C 34601.5 hPa WSW 18.2 km/h 41.4 km/h 75 % 0 mm 301 W/m2
19:40 -6.5 °C -9.2 °C 34601.5 hPa WSW 18.2 km/h 31.1 km/h 74 % 0 mm 265 W/m2
19:45 -6.6 °C -9.2 °C 34601.5 hPa West 10.3 km/h 31.1 km/h 74 % 0 mm 255 W/m2
19:50 -6.6 °C -9.2 °C 34601.5 hPa NW 23.3 km/h 28.5 km/h 74 % 0 mm 230 W/m2
19:55 -6.6 °C -9.3 °C 34601.5 hPa West 12.9 km/h 28.5 km/h 74 % 0 mm 218 W/m2
20:00 -6.8 °C -9.6 °C 34601.5 hPa NW 20.8 km/h 33.6 km/h 73 % 0 mm 211 W/m2
20:10 -7.1 °C -9.7 °C 34601.5 hPa WNW 15.6 km/h 38.8 km/h 75 % 0 mm 39 W/m2
20:15 -7.3 °C -9.7 °C 34611.7 hPa WSW 25.9 km/h 33.6 km/h 76 % 0 mm 162 W/m2
20:20 -7.3 °C -9.7 °C 34611.7 hPa NW 12.9 km/h 33.6 km/h 76 % 0 mm 100 W/m2
20:25 -7.2 °C -9.6 °C 34611.7 hPa WNW 25.9 km/h 36.2 km/h 76 % 0 mm 181 W/m2
20:30 -7 °C -9.6 °C 34611.7 hPa WNW 18.2 km/h 38.8 km/h 75 % 0 mm 158 W/m2
20:35 -7.1 °C -9.6 °C 34611.7 hPa WSW 18.2 km/h 41.4 km/h 75 % 0 mm 88 W/m2
20:40 -7.2 °C -9.5 °C 34611.7 hPa NW 18.2 km/h 41.4 km/h 77 % 0 mm 62 W/m2
20:45 -7.3 °C -9.6 °C 34611.7 hPa West 25.9 km/h 36.2 km/h 77 % 0 mm 35 W/m2
20:50 -7.4 °C -9.7 °C 34611.7 hPa West 12.9 km/h 33.6 km/h 77 % 0 mm 35 W/m2
20:55 -7.4 °C -9.7 °C 34611.7 hPa WNW 12.9 km/h 33.6 km/h 78 % 0 mm 33 W/m2
21:00 -7.6 °C -9.7 °C 34611.7 hPa Calm   28.5 km/h 78 % 0 mm 28 W/m2
21:05 -7.6 °C -9.8 °C 34601.5 hPa West 5.1 km/h 28.5 km/h 78 % 0 mm 23 W/m2
21:10 -7.7 °C -9.8 °C 34601.5 hPa WNW 20.8 km/h 28.5 km/h 78 % 0 mm 23 W/m2
21:15 -7.7 °C -9.9 °C 34601.5 hPa West 23.3 km/h 31.1 km/h 78 % 0 mm 23 W/m2
21:20 -7.8 °C -9.8 °C 34601.5 hPa West 12.9 km/h 31.1 km/h 79 % 0 mm 21 W/m2
21:30 -7.8 °C -9.9 °C 34601.5 hPa NW 12.9 km/h 28.5 km/h 79 % 0 mm 18 W/m2
21:35 -7.9 °C -9.8 °C 34601.5 hPa WNW 12.9 km/h 28.5 km/h 80 % 0 mm 19 W/m2
21:40 -7.9 °C -9.8 °C 34601.5 hPa WNW 10.3 km/h 31.1 km/h 80 % 0 mm 16 W/m2
21:45 -7.9 °C -9.8 °C 34601.5 hPa WNW 10.3 km/h 31.1 km/h 80 % 0 mm 12 W/m2
21:50 -7.9 °C -9.9 °C 34601.5 hPa NW 15.6 km/h 28.5 km/h 80 % 0 mm 11 W/m2
21:55 -7.9 °C -9.9 °C 34601.5 hPa NW 12.9 km/h 28.5 km/h 80 % 0 mm 7 W/m2
22:00 -8.1 °C -9.9 °C 34601.5 hPa WNW 12.9 km/h 28.5 km/h 81 % 0 mm 5 W/m2
22:05 -8.2 °C -9.9 °C 34601.5 hPa West 12.9 km/h 28.5 km/h 82 % 0 mm 5 W/m2
22:10 -8.2 °C -9.9 °C 34601.5 hPa West 10.3 km/h 28.5 km/h 82 % 0 mm 0 W/m2
22:15 -8.2 °C -9.9 °C 34601.5 hPa NW 5.1 km/h 25.9 km/h 82 % 0 mm 0 W/m2
22:20 -8.2 °C -9.9 °C 34601.5 hPa NW 10.3 km/h 25.9 km/h 82 % 0 mm 0 W/m2
22:25 -8.3 °C -10 °C 34601.5 hPa WNW 7.7 km/h 23.3 km/h 82 % 0 mm 0 W/m2
22:30 -8.3 °C -10 °C 34611.7 hPa NW 12.9 km/h 25.9 km/h 82 % 0 mm 0 W/m2
22:35 -8.3 °C -10 °C 34601.5 hPa WNW 20.8 km/h 25.9 km/h 82 % 0 mm 0 W/m2
22:40 -8.3 °C -10.1 °C 34611.7 hPa NW 10.3 km/h 25.9 km/h 82 % 0 mm 0 W/m2
22:45 -8.4 °C -10.1 °C 34611.7 hPa WNW 5.1 km/h 25.9 km/h 83 % 0 mm 0 W/m2
22:50 -8.5 °C -10.1 °C 34611.7 hPa Calm   18.2 km/h 83 % 0 mm 0 W/m2
22:55 -8.6 °C -10 °C 34625.2 hPa WNW 23.3 km/h 23.3 km/h 85 % 0 mm 0 W/m2
23:00 -8.6 °C -10.1 °C 34625.2 hPa WNW 10.3 km/h 23.3 km/h 84 % 0 mm 0 W/m2
23:05 -8.4 °C -9.9 °C 34625.2 hPa WNW 10.3 km/h 23.3 km/h 84 % 0 mm 0 W/m2
23:10 -8.6 °C -10.1 °C 34625.2 hPa WNW 7.7 km/h 20.8 km/h 84 % 0 mm 0 W/m2
23:15 -8.6 °C -9.8 °C 34625.2 hPa WNW 20.8 km/h 23.3 km/h 86 % 0 mm 0 W/m2
23:20 -8.6 °C -9.9 °C 34625.2 hPa NW 10.3 km/h 23.3 km/h 86 % 0 mm 0 W/m2
23:25 -8.6 °C -9.8 °C 34625.2 hPa NW 12.9 km/h 20.8 km/h 87 % 0 mm 0 W/m2
23:30 -8.6 °C -9.8 °C 34625.2 hPa WSW 5.1 km/h 23.3 km/h 87 % 0 mm 0 W/m2
23:35 -8.6 °C -9.7 °C 34625.2 hPa WNW 5.1 km/h 23.3 km/h 88 % 0 mm 0 W/m2
23:40 -8.5 °C -9.6 °C 34635.4 hPa NW 20.8 km/h 20.8 km/h 88 % 0 mm 0 W/m2
23:45 -8.5 °C -9.6 °C 34635.4 hPa West 18.2 km/h 23.3 km/h 89 % 0 mm 0 W/m2
23:50 -8.4 °C -9.4 °C 34635.4 hPa West 7.7 km/h 25.9 km/h 89 % 0 mm 0 W/m2
23:55 -8.3 °C -9.4 °C 34635.4 hPa WNW 7.7 km/h 25.9 km/h 88 % 0 mm 0 W/m2
Avec l'autorisation de Weather Underground - 1.75 mb